CAPE
0 0 0 0 0 0 0 0 0 0 0 0 0 0 0 0 0 0 0 0 0 0 8 0 10 4 3 1 0 0 0 0 0 0 0 7 3 0 0 1 0 0 0
0 0 0 0 0 0 0 0 0 0 0 0 0 0 0 0 0 0 0 0 0 0 0 0 0 0 0 0 0 0 0 0 0 0 0 3 1 1 2 1 0 0 0
0 0 0 0 0 0 0 0 0 0 0 0 0 0 0 0 0 0 0 0 0 0 0 0 0 0 0 0 0 0 0 0 0 0 0 9 0 0 0 0 0 0 3
0 0 0 0 0 0 0 0 0 0 0 0 0 0 0 0 0 0 0 0 0 0 0 0 0 0 0 0 0 0 0 0 0 1 2 2 0 0 0 0 0 0 0
0 0 0 0 0 0 0 0 0 0 0 0 0 0 0 0 0 0 0 0 0 0 0 0 0 0 0 0 0 0 0 0 0 3 4 5 5 5 1 1 0 0 0
0 0 0 0 0 0 0 0 0 0 0 0 0 0 0 0 0 0 0 0 0 0 0 0 0 0 0 0 0 0 0 0 0 0 0 0 0 1 2 2 2 2 8
0 0 0 0 0 0 0 0 0 0 0 0 0 0 0 0 0 0 0 0 0 0 0 0 0 0 0 0 0 0 0 0 0 0 0 0 0 0 0 1 5 9 12
0 0 0 0 0 0 0 0 0 0 0 0 0 0 0 0 0 0 0 0 0 0 0 0 0 0 0 0 0 0 0 0 0 0 0 0 0 0 1 4 7 9 13
0 0 0 0 0 0 0 0 0 0 0 0 0 0 0 0 0 0 0 0 0 0 0 0 0 0 0 0 0 0 0 0 0 0 0 0 1 5 10 12 12 15 16
0 0 0 0 0 0 0 0 0 0 0 0 0 0 0 0 0 0 0 0 0 0 0 0 0 0 0 0 0 0 0 0 0 0 0 0 2 8 14 16 14 12 10
0 0 0 0 0 0 0 0 0 0 0 0 0 0 0 0 0 0 0 0 0 0 0 0 0 0 0 0 0 0 0 0 0 0 0 0 2 7 13 13 10 10 14
0 0 0 0 0 0 0 0 0 0 0 0 0 0 0 0 0 0 0 0 0 0 4 0 0 0 0 0 0 0 0 0 0 0 0 0 0 0 0 0 2 5 7
0 0 0 0 0 0 0 0 0 0 0 0 0 0 0 0 0 0 0 0 1 1 5 6 0 0 0 0 0 0 0 0 0 0 0 0 0 0 0 0 2 4 6
0 0 0 0 0 0 0 0 0 0 0 0 0 0 0 0 0 0 0 1 0 0 0 2 4 0 0 0 0 0 0 0 0 0 0 0 0 0 0 1 3 6 7
0 0 0 0 0 0 0 0 0 0 0 0 0 0 0 0 0 0 0 0 2 1 0 0 1 0 0 0 0 0 0 0 0 0 0 0 0 0 0 1 2 6 8
0 0 0 0 0 0 0 0 0 0 0 0 0 0 0 0 0 0 0 1 1 0 0 0 0 0 0 0 0 0 0 0 0 0 0 0 0 0 1 2 1 1 2
0 0 0 0 0 0 0 0 0 0 0 0 0 0 0 0 0 0 0 0 0 3 6 0 0 0 0 0 0 0 0 0 0 0 0 0 0 0 0 0 0 2 4
0 0 0 0 0 0 0 0 0 0 0 0 0 0 0 0 0 0 0 0 0 0 0 0 0 0 0 0 0 0 0 0 0 0 0 0 0 0 0 2 2 2 3
0 0 0 0 0 0 0 0 0 0 0 0 0 0 0 0 0 0 0 0 0 0 0 0 0 0 0 0 0 0 0 0 0 0 0 0 0 0 0 0 0 0 0
0 0 0 0 0 0 0 0 0 0 0 0 0 0 0 0 0 0 0 0 0 0 0 0 0 0 0 0 0 0 0 0 0 0 0 0 0 0 0 0 0 0 0
0 0 0 0 0 0 0 0 0 0 0 0 0 0 0 0 0 0 0 0 0 0 0 0 0 0 0 0 0 0 0 0 0 0 0 0 0 0 0 0 0 0 0
0 0 0 0 0 0 0 0 0 0 0 0 0 0 0 0 0 0 0 0 0 0 0 0 0 0 0 0 0 0 0 0 0 0 0 0 0 0 0 0 0 0 0
0 0 0 1 0 0 0 0 0 0 0 0 0 0 0 0 0 0 0 0 0 0 0 0 0 0 0 0 0 0 0 0 0 0 0 0 0 0 0 0 0 0 0
0 0 0 0 0 0 0 0 0 0 0 0 0 0 0 0 0 0 0 0 0 0 0 0 0 0 0 0 0 0 0 0 0 0 0 0 0 0 0 0 0 0 0
0 0 0 0 0 0 0 0 0 0 0 0 0 0 0 0 0 0 0 1 0 0 0 0 0 0 0 0 0 0 0 0 0 0 0 0 0 0 0 0 0 0 0
0 0 0 0 0 0 0 0 0 0 0 0 0 0 0 0 0 0 0 1 2 0 0 0 0 0 0 0 0 0 0 0 0 0 0 0 0 0 0 0 3 0 0
CIN
0 0 0 0 0 0 0 0 0 0 0 0 0 0 0 0 0 0 0 0 0 0 -1 0 -1 -1 -1 -1 0 0 0 -1 -1 0 -1 -1 -1 0 0 0 0 0 0
0 0 0 0 0 0 0 0 0 0 0 0 0 0 0 0 0 0 0 0 0 0 0 0 0 0 -1 0 0 0 0 0 0 0 0 0 0 -1 -1 0 0 0 0
0 0 0 0 0 0 0 0 0 0 0 0 0 0 0 0 0 0 0 0 0 0 0 0 0 0 0 0 0 0 0 0 0 0 -1 0 0 0 0 0 0 0 0
0 0 0 0 0 0 0 0 0 0 0 0 0 0 0 0 0 0 0 0 0 0 0 0 0 0 0 0 0 0 0 0 0 0 -1 -1 -1 0 0 0 0 0 0
0 0 0 0 0 0 0 0 0 0 0 0 0 0 0 0 0 0 0 0 0 0 0 0 0 0 0 0 0 0 0 0 0 -1 -1 0 -1 -1 0 -1 -1 0 0
0 0 0 0 0 0 0 0 0 0 0 0 0 0 0 0 0 0 0 0 0 0 0 0 0 0 0 0 0 0 0 0 -1 -1 0 -1 -1 -1 0 -1 -1 -1 -1
0 0 0 0 0 0 0 0 0 0 0 0 0 0 0 0 0 0 0 0 0 0 0 0 0 0 0 0 0 0 0 0 0 0 0 0 0 0 0 0 0 -1 -1
0 0 0 0 0 0 0 0 0 0 0 0 0 0 0 0 0 0 0 0 0 0 0 0 0 0 0 0 0 0 0 0 0 0 0 0 0 0 -1 -1 -1 -1 -1
0 0 0 0 0 0 0 0 0 0 0 0 0 0 0 0 0 0 0 0 0 0 0 0 0 0 0 0 0 0 0 0 0 0 0 0 -1 -1 -1 -1 -1 -1 -1
0 0 0 0 0 0 0 0 0 0 0 0 0 0 0 0 0 0 0 0 0 0 0 0 0 0 0 0 0 0 0 0 0 0 0 0 0 -1 -2 -1 -2 -2 -1
0 0 0 0 0 0 0 0 0 0 0 0 0 0 0 0 0 0 0 0 0 0 0 0 0 0 0 0 0 0 0 0 0 0 0 0 0 -1 -1 -1 -1 -2 -2
0 0 0 0 0 0 0 0 0 0 0 0 0 0 0 0 0 0 0 0 0 -1 -1 0 0 0 0 0 0 0 0 0 0 0 0 0 0 0 0 0 -1 -2 -2
0 0 0 0 0 0 0 0 0 0 0 0 0 0 0 0 0 0 0 0 0 -2 -3 -2 0 0 0 0 0 0 0 0 0 0 0 0 0 0 0 0 -1 -1 -1
0 0 0 0 0 0 0 0 0 0 0 0 0 0 0 0 0 0 0 -1 0 0 0 -2 -1 0 0 0 0 0 0 0 0 0 0 0 0 0 0 -1 -1 -1 -1
0 0 0 0 0 0 0 0 0 0 0 0 0 0 0 0 0 0 0 0 -1 -1 0 0 -1 -1 0 0 0 0 0 0 0 0 0 0 0 0 0 -1 -1 -2 -1
0 0 0 0 0 0 0 0 0 0 0 0 0 0 0 0 0 0 0 0 -1 -1 0 0 0 0 0 0 0 0 0 0 0 0 0 0 0 0 -1 -1 -1 -1 -1
0 0 0 0 0 0 0 0 0 0 0 0 0 0 0 0 0 0 0 0 0 -2 -1 0 0 0 0 0 0 0 0 0 0 0 0 0 0 0 0 0 -1 -1 -1
0 0 0 0 0 0 0 0 0 0 0 0 0 0 0 0 0 0 0 0 0 0 0 0 0 0 0 0 0 0 0 0 0 0 0 0 0 0 0 -1 0 -1 0
0 0 0 0 0 0 0 0 0 0 0 0 0 0 0 0 0 0 0 0 0 0 0 0 0 0 0 0 0 0 0 0 0 0 0 0 0 0 0 0 0 0 0
0 0 0 0 0 0 0 0 0 0 0 0 0 0 0 0 0 0 0 0 0 0 0 0 0 0 0 0 0 0 0 0 0 0 0 0 0 0 0 0 0 0 0
0 0 0 0 0 0 0 0 0 0 0 0 0 0 0 0 0 0 0 0 0 0 0 0 0 0 0 0 0 0 0 0 0 0 0 0 0 0 0 0 0 0 0
0 0 0 0 0 0 0 0 0 0 0 0 0 0 0 0 0 0 0 0 0 0 0 0 0 0 0 0 0 0 0 0 0 0 0 0 0 0 0 0 0 0 0
0 0 -2 -4 0 0 0 0 0 0 0 0 0 0 0 0 0 0 0 0 0 0 0 0 0 0 0 0 0 0 0 0 0 0 0 0 0 0 0 0 0 0 0
0 0 0 0 0 0 0 0 0 0 0 0 0 0 0 0 0 0 0 0 0 0 0 0 0 0 0 0 0 0 -1 -1 0 0 0 0 0 0 0 0 0 0 0
0 0 0 0 0 0 0 0 0 0 0 0 0 0 0 0 0 0 0 0 0 0 0 0 0 0 0 0 0 -1 -1 0 0 0 0 -1 0 0 0 0 0 0 0
0 0 0 0 0 0 0 0 0 0 0 0 0 0 0 0 0 0 0 0 0 0 0 0 0 0 0 0 0 0 0 -1 0 0 0 0 0 0 0 0 -2 -1 0
Wind_Speed
4 5 7 8 9 10 12 14 16 17 19 21 23 25 25 25 26 25 24 23 21 19 17 19 19 20 20 21 23 24 24 25 26 28 28 26 28 29 29 29 30 30 30
6 6 6 7 8 10 11 13 14 16 19 21 23 24 25 26 26 26 24 23 23 20 19 20 20 20 22 22 24 26 27 27 29 29 30 30 30 30 30 30 31 31 31
4 4 5 7 8 9 11 13 15 17 18 20 22 24 25 26 26 25 24 22 21 21 21 21 21 23 24 25 27 27 28 30 31 31 32 29 32 32 30 30 31 32 31
6 5 5 6 7 8 10 12 14 16 18 21 22 25 26 24 23 24 23 22 21 21 22 23 24 25 26 26 27 28 31 32 33 33 33 33 32 33 34 34 34 33 32
2 5 5 6 6 7 9 11 14 16 19 22 23 25 25 22 21 22 22 22 22 23 23 24 26 26 26 27 28 29 31 33 35 35 36 36 36 37 36 35 35 35 35
4 4 5 5 5 7 9 11 14 17 20 22 24 25 25 21 21 22 22 22 24 25 23 24 25 26 27 27 28 30 33 35 36 37 38 38 38 39 39 39 38 38 38
3 3 4 4 5 6 9 11 14 18 20 22 25 25 25 21 21 22 22 23 26 25 23 25 27 28 28 28 30 33 36 38 38 38 38 39 39 39 38 38 38 39 40
2 4 5 5 5 7 9 10 14 19 21 20 24 26 30 27 22 22 24 24 26 25 23 26 28 28 28 30 32 34 35 35 37 39 39 40 40 39 39 39 39 40 40
6 7 6 6 5 6 8 12 16 18 20 19 21 27 31 32 32 26 24 24 26 24 25 29 29 30 31 32 33 34 36 37 37 38 39 39 40 40 40 41 41 42 42
6 7 5 4 6 8 9 12 15 16 18 22 24 24 25 29 33 34 28 27 27 28 29 31 32 33 32 32 33 34 34 35 36 37 38 40 40 41 42 42 43 44 45
8 7 4 5 7 9 10 12 14 15 17 21 25 28 29 27 27 32 37 34 30 29 30 33 35 33 31 31 30 30 32 33 35 37 39 40 41 43 45 46 48 48 49
8 7 5 5 7 9 8 11 16 17 20 22 26 27 27 29 31 31 35 36 37 35 33 34 33 31 28 28 29 31 33 34 37 40 43 44 45 46 47 48 48 49 49
8 7 6 6 8 9 11 10 15 20 22 25 26 27 26 27 28 30 34 37 38 36 36 32 30 27 25 26 28 32 34 38 41 42 43 43 44 44 44 43 44 44 45
7 6 7 9 7 8 10 13 18 21 23 24 25 25 27 28 28 29 32 35 39 37 34 35 29 26 27 27 30 35 38 39 39 41 41 41 42 42 41 41 41 42 42
11 9 9 8 10 12 13 19 20 23 23 23 24 26 27 28 27 27 27 29 33 41 40 34 32 27 26 28 32 35 36 37 39 38 38 39 38 39 39 40 40 41 43
12 9 9 11 14 15 19 18 21 23 25 27 26 25 25 26 27 27 26 27 28 32 39 34 32 30 28 29 31 33 34 35 35 35 35 36 37 37 38 40 41 43 45
11 9 11 12 14 17 18 21 24 27 28 27 25 24 26 26 27 26 26 27 28 29 34 34 31 29 29 30 30 30 31 31 31 31 33 35 36 36 39 41 41 41 41
9 11 12 12 17 16 17 23 26 26 26 27 24 25 26 26 26 27 27 27 28 27 30 36 32 30 29 29 29 29 29 28 29 30 31 33 34 35 34 35 38 39 39
8 9 10 14 17 17 22 23 24 26 28 25 24 25 26 26 28 27 27 28 27 27 27 30 32 29 28 28 28 27 27 27 28 30 30 29 29 30 32 37 38 37 35
9 10 14 14 17 19 23 25 28 28 28 26 25 26 26 27 28 28 28 27 27 27 27 28 29 28 27 27 26 28 28 28 30 30 27 26 26 30 34 35 33 31 31
14 16 18 16 19 22 27 28 27 29 28 28 28 27 27 27 26 26 27 27 26 26 27 28 29 27 27 27 27 27 27 30 30 28 27 28 32 32 29 27 26 27 30
15 18 19 21 25 28 27 27 30 30 30 31 32 31 29 28 28 26 25 25 26 26 27 27 26 26 26 26 25 24 26 30 32 27 31 32 30 30 28 25 28 33 35
20 22 24 26 28 26 28 30 32 32 32 33 34 34 34 30 28 26 25 25 24 23 23 23 23 23 24 24 22 22 23 26 29 30 31 33 30 28 26 26 29 33 29
23 25 25 24 26 28 30 31 33 34 35 36 35 34 33 32 28 26 25 26 24 23 21 19 19 20 21 21 18 19 23 24 24 27 26 32 28 29 30 30 29 27 24
24 25 26 28 28 31 33 35 36 37 38 38 36 35 33 32 28 24 25 26 24 23 20 18 18 18 19 17 15 19 21 25 28 30 27 25 30 35 33 30 21 24 34
27 28 29 30 32 35 36 37 38 39 41 41 39 36 34 31 28 24 24 25 25 22 18 18 17 17 16 14 13 14 19 22 26 31 24 31 34 34 30 25 25 31 26
Wind_Direction
60 10 16 22 27 19 14 12 13 13 13 11 9 5 3 4 2 1 -0 358 0 3 5 2 0 357 356 354 350 348 347 345 342 337 334 334 330 328 326 324 323 320 318
75 51 25 19 20 24 23 20 18 14 8 5 3 3 2 1 1 1 2 1 0 3 1 357 353 352 348 344 340 337 334 333 330 330 329 326 326 325 324 323 323 322 320
68 25 54 43 25 23 22 18 11 7 6 6 3 0 357 356 357 359 359 359 0 358 355 352 349 345 340 337 333 330 328 325 324 322 322 324 321 321 324 324 324 321 320
103 77 48 48 39 36 24 13 7 6 3 359 358 355 354 357 359 359 359 359 357 352 347 343 340 337 334 332 331 329 325 320 318 317 317 317 318 317 316 316 317 319 319
51 91 66 38 46 32 14 8 2 360 357 355 353 353 355 358 358 358 356 357 356 349 343 339 337 336 335 332 329 327 322 317 314 313 311 311 311 311 311 311 312 312 312
98 67 40 41 34 8 2 360 360 357 355 353 350 349 350 351 351 350 350 349 346 345 343 340 338 336 334 330 327 324 319 315 312 311 310 310 310 309 308 307 307 307 307
83 67 18 12 360 356 354 356 360 354 351 351 348 346 344 347 347 346 343 342 340 339 338 337 334 331 328 327 324 321 316 313 311 311 310 310 309 308 308 308 307 306 306
23 348 343 343 349 356 354 351 350 349 348 350 347 346 340 339 335 336 335 334 335 335 333 334 332 330 327 325 323 321 318 315 313 311 310 309 308 308 307 306 306 305 305
323 331 333 336 344 350 345 342 345 346 345 348 346 343 338 334 335 335 333 333 334 333 330 331 330 328 326 323 322 320 318 315 313 312 311 310 308 307 306 305 304 303 303
316 326 334 337 336 341 339 338 343 346 346 342 344 341 339 334 332 331 335 334 332 329 329 330 329 325 324 322 321 321 321 319 316 314 312 310 308 306 304 303 302 301 299
305 315 320 324 324 330 336 332 337 341 342 338 338 339 336 335 333 329 327 330 332 330 329 328 327 326 324 324 324 324 323 322 319 316 313 310 307 304 302 300 297 296 295
297 305 309 311 318 323 334 327 331 333 337 336 335 336 335 333 333 331 328 328 326 327 329 329 330 328 328 328 327 325 323 321 319 315 310 307 305 303 301 299 298 296 295
290 290 295 302 311 321 328 327 325 329 331 332 335 335 337 335 334 331 328 327 327 329 329 332 332 332 330 329 328 326 323 321 318 315 312 310 308 306 305 304 303 301 299
277 291 295 300 297 312 322 326 325 330 333 332 334 336 335 335 335 333 331 331 328 328 329 329 334 333 331 330 328 326 322 321 319 317 314 313 311 309 308 306 304 303 301
288 295 302 299 311 316 317 326 327 330 332 334 333 333 334 337 337 334 333 333 331 329 330 333 331 335 331 329 327 326 324 322 321 319 318 316 314 312 310 307 305 302 298
291 289 301 307 317 321 325 329 331 334 333 330 331 331 333 334 335 336 336 335 333 330 327 332 331 331 331 329 328 327 325 324 323 322 320 318 316 313 310 307 303 296 291
295 294 298 306 315 323 323 324 328 328 327 328 328 328 329 331 333 334 333 331 331 330 327 330 332 333 331 330 330 331 330 329 327 326 324 321 318 314 310 304 300 296 294
298 298 303 305 313 319 323 322 319 324 327 326 326 326 326 329 329 330 330 328 328 329 327 327 331 332 332 332 332 332 333 333 332 331 329 326 321 317 313 307 300 298 298
310 310 305 317 317 320 323 324 323 323 324 324 324 323 324 325 325 327 327 327 327 328 327 327 328 332 333 334 334 334 335 335 336 335 334 332 330 321 313 303 302 304 307
326 324 317 321 321 317 324 324 323 323 323 321 321 321 322 322 321 323 325 325 325 325 326 327 327 329 331 334 335 335 336 338 337 339 340 340 335 325 314 307 309 314 314
331 333 328 322 325 324 323 321 322 323 322 322 321 320 319 318 318 318 321 324 323 323 325 326 326 328 330 333 333 335 335 337 340 343 345 342 333 325 323 323 324 323 319
341 334 329 324 321 321 322 320 320 321 322 321 320 319 318 317 316 314 314 315 319 319 321 322 324 325 328 331 334 336 336 337 338 346 342 339 337 331 326 325 322 316 311
333 330 326 323 321 323 323 322 321 321 321 320 319 319 318 318 315 314 312 314 313 311 314 318 319 322 326 331 334 335 337 338 338 340 342 340 341 335 330 325 321 315 322
332 329 329 328 326 325 324 324 324 322 320 319 319 318 317 316 314 311 312 314 314 315 315 315 316 321 325 329 332 334 335 338 341 344 347 341 346 337 331 322 319 320 327
336 334 332 330 328 327 326 324 323 321 319 318 318 317 315 313 312 308 310 312 311 313 315 311 313 318 322 325 329 333 334 336 338 340 348 351 346 331 329 329 329 325 313
336 334 332 331 329 326 326 324 323 321 318 317 316 315 313 309 308 306 306 309 308 308 312 318 319 319 321 323 326 329 333 335 337 338 354 346 342 337 339 341 333 322 332